Location: Slidell
(30.2789°N, 89.7378°W)
Time: 22:25:58
(UTC-05:00)

Cosmos 2360 Rocket - Visible Passes

Search period start: 28 March 2017 00:00
Search period end: 07 April 2017 00:00
Orbit: 833 x 846 km, 71.0° (Epoch: 27 March)

Date Brightness Start Highest point End Pass type
(mag) Time Alt. Az. Time Alt. Az. Time Alt. Az.
28 Mar 5.1 02:57:35 10° NE 02:57:35 10° NE 02:57:39 10° NE visible
28 Mar 4.3 04:39:21 14° NNW 04:39:21 14° NNW 04:40:38 10° NNW visible
29 Mar 4.4 04:24:08 14° NNW 04:24:08 14° NNW 04:25:05 10° NNW visible
30 Mar 4.6 04:08:53 13° NNW 04:08:53 13° NNW 04:09:32 10° N visible
31 Mar 4.7 03:53:37 12° N 03:53:37 12° N 03:54:00 10° N visible
01 Apr 4.8 03:38:18 11° N 03:38:18 11° N 03:38:25 10° N visible
